This is the latest recevied weather packets stored in our database for station/object SV9TNF-52. If no packets are shown the sender has not sent any weather packets the latest 10 day(s).
| Time | Temp. | Humidity | Pressure | Rain* | Wind** | Luminosity | Snow |
|---|---|---|---|---|---|---|---|
| 1787943690 | 26.11° C | 71% | 1020.7 hPa | 0 mm | 4.47 m/s, 98° | - | - |
| 1787943389 | 26.67° C | 71% | 1020.7 hPa | 0 mm | 3.58 m/s, 228° | - | - |
| 1787943089 | 26.67° C | 71% | 1020.7 hPa | 0 mm | 5.36 m/s, 194° | - | - |
| 1787942789 | 26.67° C | 71% | 1020.7 hPa | 0 mm | 1.79 m/s, 183° | - | - |
| 1787942489 | 26.67° C | 70% | 1020.7 hPa | 0 mm | 1.79 m/s, 165° | - | - |
| 1787942190 | 27.22° C | 70% | 1020.3 hPa | 0 mm | 1.79 m/s, 143° | - | - |
| 1787941895 | 27.78° C | 70% | 1020.3 hPa | 0 mm | 1.34 m/s, 240° | - | - |
| 1787941589 | 27.78° C | 70% | 1020.3 hPa | 0 mm | 1.34 m/s, 239° | - | - |
| 1787941289 | 27.78° C | 70% | 1020 hPa | 0 mm | 0.89 m/s, 333° | - | - |
| 1787940989 | 27.78° C | 70% | 1020 hPa | 0 mm | 2.24 m/s, 244° | - | - |
| 1787940689 | 27.78° C | 70% | 1020 hPa | 0 mm | 1.34 m/s, 250° | - | - |
| 1787940389 | 27.78° C | 70% | 1020 hPa | 0 mm | 1.34 m/s, 291° | - | - |
| 1787940089 | 27.78° C | 69% | 1020 hPa | 0 mm | 1.79 m/s, 354° | - | - |
| 1787939788 | 27.78° C | 69% | 1020 hPa | 0 mm | 4.02 m/s, 351° | - | - |
| 1787939489 | 27.78° C | 69% | 1020 hPa | 0 mm | 1.34 m/s, 19° | - | - |
| 1787939188 | 27.78° C | 69% | 1020 hPa | 0 mm | 1.79 m/s, 24° | - | - |
| 1787938888 | 28.33° C | 69% | 1020 hPa | 0 mm | 2.24 m/s, 37° | - | - |
| 1787938588 | 28.33° C | 69% | 1020 hPa | 0 mm | 1.34 m/s, 252° | - | - |
| 1787938288 | 28.33° C | 68% | 1020 hPa | 0 mm | 0.89 m/s, 256° | - | - |
| 1787937988 | 28.33° C | 68% | 1020 hPa | 0 mm | 1.34 m/s, 279° | - | - |
| 1787937688 | 28.33° C | 67% | 1019.6 hPa | 0 mm | 2.68 m/s, 356° | - | - |
| 1787937388 | 28.33° C | 66% | 1019.6 hPa | 0 mm | 0 m/s | - | - |
| 1787937087 | 28.33° C | 66% | 1019.6 hPa | 0 mm | 0.45 m/s, 53° | - | - |
| 1787936788 | 28.33° C | 66% | 1019.6 hPa | 0 mm | 0.45 m/s, 217° | - | - |
| 1787936487 | 28.33° C | 67% | 1019.6 hPa | 0 mm | 0 m/s | - | - |
* Rain latest hour (hover to see other rain measurements)
** Current wind speed in m/s (hover to see current wind gust speed)